#timestamp,LO_Frequency,Hit,StdDev 
1692093615.6,286046997.9,N
1692093635.4,286046995.8,N
1692093655.2,286046995.1,N
1692093675.1,286046997.9,N
1692093676.0,286046997.9,N
1692093695.8,286046995.8,N
1692093715.6,286046995.2,N
1692093735.5,286046993.4,N
1692093755.3,286046995.9,N
1692093775.1,286046993.4,N
1692093795.9,286046992.3,N
1692093815.7,286046991.9,N
1692093835.5,286046991.8,N
1692093855.4,286046992.2,N
1692093875.2,286046994.5,N
1692093895.0,286046994.1,N
1692093895.9,286046994.1,N
1692093915.8,286046994.1,N
1692093935.6,286046994.7,N
1692093955.4,286046991.7,N
1692093975.3,286046992.1,N
1692093995.1,286046992.0,N
1692094015.8,286046992.0,N
1692094035.7,286046993.1,N
1692094055.5,286046990.4,Y
1692094075.3,286046995.5,P
1692094095.2,286046995.4,P
1692094115.0,286046995.6,P
1692094115.9,286046995.6,Y
1692094135.7,286047002.7,P
1692094155.6,286046999.9,N
1692094175.4,286047000.0,N
1692094195.2,286046998.2,N
1692094215.1,286046998.9,N
1692094216.0,286046998.9,N
1692094235.8,286046998.5,N
1692094255.7,286047000.7,N
1692094275.5,286046999.8,N
1692094295.3,286046998.2,N
1692094315.2,286046996.5,N
1692094335.9,286046999.3,N
1692094355.7,286046998.9,N
1692094375.6,286046999.4,N
1692094395.4,286046999.6,N
1692094415.2,286046996.8,N
1692094435.0,286046996.5,N
1692094436.0,286046996.5,N
1692094455.8,286046997.1,N
1692094475.6,286046997.4,N
1692094495.5,286046997.7,N
1692094515.3,286046997.3,N
1692094535.1,286046997.7,N
1692094555.9,286046997.8,N
1692094575.7,286046996.5,N
1692094595.5,286046997.8,N
1692094615.4,286046997.8,N
1692094635.2,286046995.3,Y
1692094655.0,286047000.9,P
1692094655.9,286047000.9,N
1692094675.8,286046998.8,N
1692094695.6,286046999.4,N
1692094715.4,286046995.2,Y
1692094735.3,286046995.2,P
1692094755.1,286046997.3,N
1692094756.0,286046997.3,N
1692094775.8,286046997.9,N
1692094795.7,286046997.3,N
1692094815.5,286046995.2,Y
1692094835.3,286046999.0,P
1692094855.2,286046998.7,N
1692094875.9,286046998.7,N
1692094895.7,286046999.3,N
1692094915.6,286046997.0,Y
1692094935.4,286046998.5,P
1692094955.2,286046998.2,P
1692094975.1,286046998.3,P
1692094976.0,286046998.3,Y
1692094995.8,286047002.5,P
1692095015.6,286047002.2,N
1692095035.5,286047002.3,N
1692095055.3,286046999.8,N
1692095075.1,286046999.8,N
1692095095.9,286047002.3,N
1692095115.7,286046999.9,N
1692095135.5,286047000.5,N
1692095155.4,286047003.9,N
1692095175.2,286047000.6,N
1692095195.0,286047000.9,N
1692095195.9,286047000.9,N
1692095215.8,286046998.1,N
1692095235.6,286046998.9,N
1692095255.4,286046998.8,N
1692095275.3,286046999.1,N
1692095295.1,286046998.4,N
1692095315.8,286046998.6,N
1692095335.7,286046998.9,N
1692095355.5,286046999.0,N
1692095375.3,286046997.5,N
1692095395.2,286046999.0,N
1692095415.9,286046999.3,N
1692095435.7,286046998.7,N
1692095455.6,286046999.4,N
1692095475.4,286046998.9,N
1692095495.2,286046997.3,N
1692095515.1,286046998.0,N
1692095516.0,286046998.0,N
1692095535.8,286046997.4,N
1692095555.6,286046997.9,N
1692095575.5,286046995.3,N
1692095595.3,286046995.0,N
1692095615.1,286046996.0,N
1692095635.9,286047005.2,N
1692095655.7,286047014.6,Y
1692095675.5,286047004.8,P
1692095695.4,286046998.6,N
1692095715.2,286046996.9,N
1692095735.0,286046997.9,N
1692095735.9,286046997.9,N
1692095755.8,286046995.2,N
1692095775.6,286047004.1,N
1692095795.4,286047001.2,N
1692095815.3,286046996.5,N
1692095835.1,286046997.2,N
1692095855.8,286046996.5,N
1692095875.7,286046996.1,N
1692095895.5,286046996.1,N
1692095915.3,286046993.7,N
1692095935.2,286046993.6,N
1692095955.0,286046994.3,N
1692095955.9,286046994.3,N
1692095975.7,286046993.9,N
1692095995.6,286046994.9,N
1692096015.4,286046995.1,N
1692096035.2,286046991.8,N
1692096055.1,286046992.3,N
1692096056.0,286046992.3,N
1692096075.8,286046992.1,N
1692096095.6,286046992.8,N
1692096115.5,286046992.6,N
1692096135.3,286046991.0,N
1692096155.1,286046990.8,N
1692096175.9,286046990.3,N
1692096195.7,286046995.8,N
1692096215.5,286046994.6,N
1692096235.4,286046992.5,N
1692096255.2,286046990.6,Y
1692096275.0,286046995.7,P
1692096275.9,286046995.7,P
1692096295.8,286046996.4,P
1692096315.6,286046993.4,Y
1692096335.4,286046998.9,P
1692096355.3,286046996.6,N
1692096375.1,286046999.1,N
1692096395.8,286046997.8,N
1692096415.7,286046997.8,N
1692096435.5,286046995.7,Y
1692096455.4,286046999.6,P
1692096475.2,286046998.8,N
1692096495.0,286046998.4,N
1692096495.9,286046998.4,N
1692096515.8,286046998.8,N
1692096535.6,286046998.5,N
1692096555.4,286046998.4,N
1692096575.3,286047016.1,Y
1692096595.1,286047012.4,P
1692096596.0,286047012.4,N
1692096615.8,286047004.5,N
1692096635.7,286047003.4,N
1692096655.5,286047002.2,N
1692096675.3,286046998.9,N
1692096695.2,286046997.8,N
1692096715.9,286046997.8,N
1692096735.7,286046995.4,N
1692096755.6,286046995.7,N
1692096775.4,286046996.4,N
1692096795.2,286046995.7,N
1692096815.1,286046996.3,N
1692096816.0,286046996.3,N
1692096835.8,286046995.3,N
1692096855.6,286046994.2,N
1692096875.5,286046994.1,N
1692096895.3,286046994.0,N
1692096915.1,286046994.8,N
1692096935.9,286046992.0,N
1692096955.7,286046994.7,N
1692096975.5,286046994.1,N
1692096995.4,286046992.2,N
1692097015.2,286046994.7,N
1692097035.0,286046992.0,N
1692097035.9,286046992.0,N
1692097055.8,286046993.0,N
1692097075.6,286046992.3,N
1692097095.4,286046992.9,N
1692097115.3,286046990.6,N
1692097135.1,286046992.9,N
1692097136.0,286046992.9,N
1692097155.8,286046993.1,N
1692097175.7,286046992.6,N
1692097195.5,286046992.4,Y
